Location: Newark
(45.1000°N, 8.5833°E)
Time: 22:38:32
(UTC+00:00)

Envisat - Visible Passes

Search period start: 17 September 2019 00:00
Search period end: 27 September 2019 00:00
Orbit: 764 x 766 km, 98.1° (Epoch: 17 September)

Date Brightness Start Highest point End Pass type
(mag) Time Alt. Az. Time Alt. Az. Time Alt. Az.
17 Sep 4.0 17:56:03 10° S 18:01:00 54° W 18:06:00 10° NNW visible
18 Sep 6.0 19:00:55 10° WSW 19:03:46 15° W 19:06:38 10° NW visible
19 Sep 5.0 18:22:09 10° SSW 18:26:39 31° W 18:31:10 10° NNW visible
21 Sep 5.8 18:48:52 10° SW 18:52:23 19° W 18:55:56 10° NW visible
22 Sep 4.6 18:10:35 10° SSW 18:15:19 39° W 18:20:05 10° NNW visible
23 Sep 6.3 19:17:16 10° W 19:18:14 10° W 19:19:13 10° WNW visible
24 Sep 5.5 18:37:00 10° SW 18:41:01 23° W 18:45:04 10° NW visible
25 Sep 4.1 17:59:06 10° S 18:04:00 49° W 18:08:57 10° NNW visible
26 Sep 6.1 19:04:19 10° WSW 19:06:49 14° W 19:09:20 10° WNW visible
